This demonstration page uses our WeatherBlox Daily Observations layout. Learn more.

Left ArrowRight Arrow

Hourly Observations for July 15, 2019

Temp ( °F °C ) Dew Point ( °F °C ) Humidity (%) Winds ( mph kmh ) Pressure ( in mb ) Visibility ( mi km ) Precip ( " mm )
12:53 am 00:53 Clear 70 21.1 65 18.3 84 84 N N/A 30.12 1020 10 16 N/A
1:53 am 01:53 Clear 69 20.6 66 18.9 90 90 N N/A 30.11 1020 10 16 N/A
2:53 am 02:53 Clear 68 20 65 18.3 90 90 N N/A 30.10 1019 10 16 N/A
3:53 am 03:53 Clear 69 20.6 66 18.9 90 90 NW 3 6 30.10 1019 10 16 N/A
4:53 am 04:53 Clear 68 20 67 19.4 96 96 N N/A 30.10 1019 10 16 N/A
5:53 am 05:53 Clear 68 20 66 18.9 93 93 N N/A 30.11 1020 10 16 N/A
6:53 am 06:53 Sunny 69 20.6 67 19.4 93 93 N N/A 30.12 1020 10 16 N/A
7:53 am 07:53 Sunny 74 23.3 68 20 82 82 N N/A 30.12 1020 10 16 N/A
8:53 am 08:53 Sunny 78 25.6 69 20.6 74 74 N N/A 30.13 1020 10 16 N/A
9:53 am 09:53 Sunny 83 28.3 70 21.1 65 65 N N/A 30.13 1020 10 16 N/A
10:53 am 10:53 Sunny 86 30 72 22.2 63 63 VRB 3 6 30.12 1020 10 16 N/A
11:53 am 11:53 Sunny 87 30.6 72 22.2 61 61 N N/A 30.12 1020 10 16 N/A
12:53 pm 12:53 Mostly Cloudy 89 31.7 73 22.8 59 59 N N/A 30.11 1020 10 16 N/A
1:53 pm 13:53 Mostly Sunny 92 33.3 68 20 46 46 VRB 6 9 30.09 1019 10 16 N/A
2:53 pm 14:53 Partly Cloudy 89 31.7 72 22.2 57 57 VRB 7 11 30.07 1018 10 16 N/A
3:05 pm 15:05 Partly Cloudy with Nearby Thunderstorms 88 31.1 72 22.2 59 59 VRB 6 9 30.03 1017 10 16 N/A
3:41 pm 15:41 Mostly Cloudy with Nearby Thunderstorms 80 26.7 67 19.4 64 64 N 9 15 30.09 1019 10 16 N/A
3:53 pm 15:53 Mostly Cloudy 81 27.2 70 21.1 69 69 N 5 7 30.09 1019 10 16 N/A
4:40 pm 16:40 Partly Cloudy with Thunderstorms 78 25.6 71 21.7 79 79 S 3 6 30.09 1019 10 16 N/A
4:53 pm 16:53 Partly Cloudy with Nearby Thunderstorms 78 25.6 72 22.2 82 82 SW 6 9 30.10 1019 7 11 0.00 0.00
5:18 pm 17:18 Cloudy with Light Rain 75 23.9 72 22.2 90 90 SSE 6 9 30.09 1019 4 6 0.02 0.51
5:33 pm 17:33 Mostly Cloudy with Nearby Thunderstorms 73 22.8 70 21.1 90 90 S 6 9 30.09 1019 7 11 0.03 0.76
5:48 pm 17:48 Mostly Cloudy with Rain 73 23 70 21 89 89 VRB 5 7 30.12 1020 4 6 0.05 1.27
5:53 pm 17:53 Mostly Cloudy with Rain 73 22.8 70 21.1 90 90 S 6 9 30.13 1020 3 5 0.06 1.52
6:38 pm 18:38 Cloudy with Rain 72 22.2 70 21.1 94 94 VRB 3 6 30.09 1019 2 3 0.09 2.29
6:53 pm 18:53 Cloudy with Rain 72 22.2 70 21.1 94 94 N N/A 30.10 1019 3 5 0.13 3.30
7:53 pm 19:53 Sunny 74 23.3 71 21.7 91 91 N N/A 30.07 1018 10 16 0.01 0.25
8:53 pm 20:53 Sunny 73 22.8 71 21.7 94 94 N N/A 30.06 1018 10 16 N/A
9:24 pm 21:24 Mostly Clear 72 22.2 71 21.7 97 97 N N/A 30.06 1018 10 16 N/A
9:53 pm 21:53 Clear 72 22.2 71 21.7 97 97 N N/A 30.06 1018 10 16 N/A
10:53 pm 22:53 Clear 72 22.2 71 21.7 97 97 N N/A 30.07 1018 10 16 N/A
11:53 pm 23:53 Mostly Cloudy 72 22.2 71 21.7 97 97 N N/A 30.06 1018 10 16 N/A

Powered by AerisWeather